Temperature
13 13 13 12 12 12 12 12 12 11 11 11 11 11 11 11 11 11 11 11 11 11 10 10 10 10 10 10 10 10 10 10 10 10 10 10 10 10 10 10 10 10 10
13 13 12 12 12 12 12 11 11 11 11 11 11 11 11 11 11 10 10 10 10 10 10 10 10 10 10 10 10 10 10 10 9 10 10 10 9 9 9 9 9 9 9
12 12 12 12 12 11 11 11 11 11 11 11 10 10 10 10 10 10 10 10 10 10 10 10 10 10 10 10 10 9 9 9 9 9 9 9 9 9 9 9 9 9 9
12 12 12 12 11 11 11 11 11 10 10 10 10 10 10 10 10 10 10 10 10 9 9 9 9 9 9 9 9 9 9 9 9 9 9 9 9 9 9 9 9 9 9
11 11 11 11 11 11 10 10 10 10 10 10 10 10 10 9 9 9 9 9 9 9 9 9 9 9 9 9 9 9 9 9 9 9 9 9 8 8 8 8 8 8 8
11 11 11 11 10 10 10 10 10 10 9 9 9 9 9 9 9 9 9 9 9 9 9 9 9 9 9 9 9 9 9 8 8 8 8 8 8 8 8 8 8 8 8
10 10 10 10 10 10 10 9 9 9 9 9 9 9 9 9 8 8 8 8 8 8 8 8 8 8 8 8 8 8 8 8 8 8 8 8 8 8 8 8 8 8 7
10 10 10 10 10 9 9 9 9 9 9 9 8 8 8 8 8 8 8 8 8 8 8 8 8 8 8 8 8 8 8 8 8 8 8 8 8 8 8 8 7 7 7
10 10 10 9 9 9 9 9 8 8 8 8 8 8 8 8 8 8 8 7 7 8 8 8 8 8 8 8 8 8 8 8 8 7 7 8 8 8 7 7 7 7 7
10 9 9 9 9 9 9 8 8 8 8 8 8 7 7 7 7 7 7 7 7 7 7 7 7 7 7 7 7 7 7 7 7 7 7 7 7 7 7 7 7 7 6
9 9 9 9 9 9 8 8 8 8 7 7 7 7 7 7 7 7 7 7 7 7 7 7 7 7 7 7 7 7 7 7 6 7 7 7 7 7 7 7 7 6 6
9 9 9 9 8 8 8 8 7 7 7 7 7 7 7 7 6 6 6 6 6 6 6 6 6 7 7 7 6 6 6 6 6 6 6 6 7 6 6 6 6 6 6
9 9 9 8 8 8 8 7 7 7 7 7 6 6 6 6 6 6 6 6 6 6 6 6 6 6 6 6 6 6 6 6 6 6 6 6 6 6 6 6 6 6 6
9 9 8 8 8 8 7 7 7 7 6 6 6 6 6 6 6 6 6 6 6 6 6 6 6 6 6 6 6 6 5 5 5 5 5 6 6 5 5 5 5 5 6
9 8 8 8 8 7 7 7 7 7 7 6 6 6 6 6 6 6 6 6 6 6 6 6 5 5 5 5 5 5 5 5 5 5 5 5 5 5 5 5 5 5 5
8 8 8 8 7 7 7 7 7 6 6 6 6 6 6 6 6 5 5 5 5 6 5 5 5 5 5 5 5 5 5 5 4 4 4 4 5 5 5 4 5 5 4
8 8 8 7 7 7 7 6 6 6 6 6 6 6 6 6 5 5 5 5 5 5 5 5 5 5 5 5 4 4 4 4 4 4 4 4 4 4 4 4 4 4 4
7 7 7 7 7 7 6 6 6 6 6 6 6 6 6 5 5 5 5 5 5 5 5 5 5 5 5 4 4 4 4 4 4 4 4 4 4 4 4 4 4 4 4
7 7 7 6 6 6 6 6 6 6 6 6 6 6 5 5 5 5 5 5 5 5 5 4 4 4 4 4 4 4 4 4 4 4 4 3 3 3 3 3 3 3 3
6 6 6 6 6 6 6 6 6 6 6 5 5 5 5 5 5 5 5 5 4 4 4 4 4 4 4 4 4 4 4 4 3 3 3 3 3 3 3 3 3 3 2
6 6 5 5 5 5 5 5 5 5 5 5 5 5 5 5 5 4 4 4 4 4 4 4 4 3 3 3 3 3 3 3 3 3 3 3 3 2 2 2 2 2 2
5 5 5 5 5 5 5 5 5 5 5 5 5 4 4 4 4 4 4 4 4 4 3 3 3 3 3 3 3 3 3 3 3 3 3 3 2 2 2 2 2 2 2
5 5 5 5 4 4 4 4 4 4 4 4 4 4 4 4 4 4 4 4 4 3 3 3 3 3 3 3 3 3 3 3 3 3 3 2 2 2 2 2 1 1 1
4 4 4 4 4 4 4 4 4 4 4 4 4 4 3 3 3 3 3 3 3 3 3 3 3 3 3 3 3 3 3 2 2 2 2 2 2 2 1 1 1 1 1
4 4 4 4 4 4 3 3 3 4 4 3 3 3 3 3 3 3 3 3 3 3 3 2 2 2 2 2 2 2 2 2 2 2 2 2 2 1 1 1 1 1 0
4 4 4 4 3 3 3 3 3 3 3 3 3 3 3 3 3 3 2 2 2 2 2 2 2 2 2 2 2 2 2 2 2 2 1 1 1 1 1 1 1 0 0
Wind_Speed
1 2 2 2 2 2 2 2 2 2 2 2 2 2 2 2 2 2 2 1 1 1 1 2 2 1 1 1 1 1 1 2 2 3 2 1 1 2 4 3 3 3 3
2 2 2 2 2 2 2 3 3 3 3 3 2 2 3 3 3 3 3 2 2 2 2 2 3 2 1 1 1 2 2 2 2 3 2 1 2 2 2 2 3 3 3
2 2 2 2 2 3 4 3 3 3 3 3 2 3 3 4 4 4 4 4 4 4 3 3 4 3 3 2 2 2 2 2 2 2 3 1 1 1 1 2 2 2 3
2 2 3 3 3 4 4 3 3 3 3 3 4 4 4 4 4 4 4 4 4 4 4 4 4 4 5 4 3 3 2 2 2 2 2 2 1 1 0 1 2 2 2
3 3 4 4 3 3 3 4 3 3 4 4 3 3 4 4 4 4 4 4 4 4 4 4 4 5 5 4 3 3 3 2 2 2 2 2 2 1 1 1 1 1 2
4 4 4 3 3 3 4 4 3 3 3 3 3 4 4 4 5 5 3 3 4 4 4 4 5 5 5 4 4 3 3 3 3 3 2 3 4 3 2 2 2 0 2
4 5 4 4 4 4 4 3 4 4 3 4 4 4 5 6 6 5 5 3 4 4 5 4 4 4 4 3 3 3 3 4 4 4 4 5 5 4 4 3 2 2 3
4 5 4 4 4 4 4 4 4 4 4 4 5 5 5 6 7 6 5 4 4 5 5 5 5 4 4 3 3 2 2 3 4 3 4 5 4 4 5 4 4 2 1
5 6 6 5 5 4 5 5 5 4 4 5 5 5 6 6 7 7 5 3 3 4 4 4 4 5 6 4 3 3 3 3 3 4 3 2 2 3 4 3 2 2 2
7 7 6 5 5 6 6 5 4 4 5 5 5 5 6 6 8 7 6 4 4 4 3 4 6 5 6 5 4 4 4 3 2 2 1 1 0 2 4 4 4 3 2
5 5 5 5 6 6 5 4 3 3 3 4 5 5 5 7 7 8 7 4 5 4 4 4 4 6 5 5 4 4 4 3 2 2 1 1 0 0 2 2 4 4 3
4 4 5 5 5 4 4 3 3 3 3 4 4 4 4 5 7 7 8 7 5 4 4 4 4 5 4 4 4 3 2 1 1 1 1 1 1 1 2 2 3 3 3
4 4 4 4 4 4 4 4 4 4 4 4 4 4 4 4 5 8 8 8 7 4 4 5 5 4 4 3 3 3 2 2 1 1 2 2 2 2 1 0 1 1 2
4 4 4 4 4 3 3 4 4 5 5 5 5 5 5 4 4 4 5 5 6 4 4 4 3 3 2 2 2 2 2 2 2 3 2 2 1 1 0 0 0 1 1
4 4 4 4 4 4 4 4 6 6 7 7 7 6 6 6 7 7 6 5 5 5 3 2 2 2 2 1 1 2 2 2 2 2 2 1 1 1 0 0 0 0 1
3 4 3 3 3 3 3 4 5 6 8 9 9 7 6 7 6 7 7 7 7 7 4 3 3 4 4 4 3 3 2 3 3 2 2 2 2 2 1 0 0 1 1
4 5 3 3 3 3 3 3 4 5 6 6 6 7 6 5 5 5 6 5 6 6 4 4 4 4 4 4 4 4 4 3 3 3 3 2 2 2 1 1 1 1 1
4 5 4 4 4 4 4 4 3 3 3 3 4 5 5 4 4 4 4 3 2 3 3 4 5 4 4 4 5 4 4 3 3 3 3 3 3 2 2 2 2 1 1
4 3 3 3 3 3 3 3 3 3 3 2 1 1 2 3 3 3 3 3 3 3 3 3 4 4 4 4 4 4 4 4 4 4 3 3 3 3 3 3 2 2 1
3 4 3 2 2 2 2 3 3 3 3 3 2 2 1 2 2 2 2 2 3 3 3 3 3 3 3 3 3 4 4 4 4 4 4 3 3 3 3 3 3 2 2
2 3 3 2 2 3 3 3 3 3 3 2 2 2 3 3 3 3 3 3 3 3 3 3 3 3 3 3 3 4 4 4 4 4 4 4 3 3 3 3 3 2 2
2 2 2 3 3 3 3 3 2 2 2 2 2 1 2 2 2 2 2 2 3 3 3 3 3 3 3 3 4 4 4 4 4 5 5 4 4 3 3 3 3 2 2
2 2 2 2 2 3 3 2 2 2 2 2 2 1 2 2 2 2 2 2 2 2 2 2 2 2 2 2 3 4 4 4 4 5 5 4 4 4 4 3 4 3 3
2 2 2 2 2 2 2 2 2 2 2 2 2 2 2 2 2 2 2 2 1 1 1 2 2 3 3 2 2 3 4 4 4 5 6 5 5 4 4 4 4 4 3
2 3 3 2 2 2 2 2 2 2 2 2 2 2 2 2 3 2 2 2 2 2 2 2 2 2 3 3 3 3 3 4 4 4 5 4 5 5 4 4 4 3 3
2 3 2 2 2 2 2 2 2 2 2 2 3 3 3 3 3 3 2 2 2 2 2 2 2 3 3 3 4 3 4 4 5 5 5 4 4 4 4 4 4 4 4
Wind_Direction
236 207 187 210 220 208 219 239 243 253 253 246 248 240 236 238 230 207 217 207 201 254 265 219 242 233 238 261 205 179 195 177 230 277 273 288 299 323 342 347 341 347 340
232 216 206 215 214 215 237 246 240 252 251 240 242 247 242 239 233 218 222 219 209 224 249 237 243 238 234 241 218 219 220 200 198 256 275 283 277 288 325 332 350 358 352
234 228 220 224 223 231 241 245 238 241 244 240 235 242 250 244 234 226 217 215 218 227 231 236 239 224 240 246 229 222 228 227 196 213 254 263 285 318 357 347 354 0 355
232 238 234 235 236 242 248 245 239 234 231 237 240 243 248 246 233 228 220 217 223 238 241 242 235 225 229 226 222 218 215 208 199 199 239 252 257 301 17 328 341 346 330
235 245 244 243 244 250 256 253 247 237 236 235 241 250 252 246 240 229 218 220 219 237 249 256 249 239 245 231 231 213 201 201 203 214 229 235 234 236 241 233 243 331 321
233 247 250 246 246 247 250 251 250 248 245 242 242 242 251 256 257 243 225 216 218 223 239 255 260 247 253 254 259 236 212 207 208 209 222 226 231 224 206 204 181 194 289
234 244 242 237 241 246 248 249 245 243 241 245 246 242 247 256 256 247 237 214 220 225 231 237 255 254 252 233 250 260 252 248 222 210 210 228 224 213 191 197 209 213 231
236 246 242 233 239 244 239 240 243 245 239 241 245 243 245 255 254 247 237 212 223 234 233 228 233 243 241 216 201 226 254 263 251 235 219 227 223 203 190 191 193 196 255
240 246 241 231 235 240 242 243 242 239 242 243 241 239 240 251 252 245 234 207 224 240 243 238 231 232 244 228 194 214 257 280 271 254 249 246 229 193 165 136 143 173 248
242 244 240 231 229 234 240 246 248 241 244 243 245 241 235 241 248 240 226 209 219 235 243 245 247 248 243 224 202 204 233 257 267 256 262 278 221 192 179 179 179 186 201
248 247 242 234 233 233 236 241 240 242 246 248 250 252 242 240 245 244 234 213 214 223 229 237 245 250 246 230 225 209 229 225 229 218 210 215 352 275 229 216 197 189 198
250 242 243 242 239 235 224 235 231 226 234 248 252 259 253 247 245 244 239 235 229 218 229 233 239 239 237 231 230 229 220 177 167 185 187 232 252 264 264 243 223 219 225
248 246 247 248 241 229 221 223 229 226 230 241 242 249 258 251 247 247 240 236 235 231 229 236 245 226 217 227 234 227 197 162 175 198 216 237 243 249 267 350 50 63 27
239 247 249 244 244 238 231 224 226 229 233 239 241 243 248 250 243 235 227 228 227 230 233 235 244 228 205 219 237 230 205 195 198 210 220 229 212 152 133 94 172 142 56
245 247 247 239 234 237 241 237 236 237 235 235 236 229 227 238 242 234 224 216 208 206 193 197 196 198 205 221 219 220 206 202 220 215 204 195 188 184 219 220 186 146 148
246 249 242 234 233 235 243 272 273 263 266 259 252 240 238 242 243 237 234 228 215 201 192 198 205 206 207 211 211 213 209 210 213 204 195 195 202 209 215 182 106 177 174
240 247 242 233 232 235 237 244 279 303 299 273 254 244 239 242 238 230 223 214 208 194 197 202 210 213 213 209 209 209 211 214 206 198 196 195 201 206 199 191 187 202 225
247 251 244 232 230 232 236 241 247 262 278 286 262 240 232 228 220 212 199 176 201 199 201 207 214 218 218 214 210 210 206 202 199 200 199 196 196 195 199 207 207 209 217
246 248 240 234 234 237 243 246 249 258 252 248 257 262 229 207 194 194 175 183 200 211 214 217 219 220 222 218 212 207 202 203 202 195 199 200 197 192 202 214 212 206 209
248 260 259 242 239 241 241 251 255 254 245 235 225 223 181 140 157 192 195 194 202 214 217 220 222 221 220 218 212 205 201 202 198 198 200 199 196 198 201 202 202 202 213
247 255 266 268 247 243 243 244 251 246 233 231 238 229 186 181 192 199 204 207 213 221 223 222 221 221 220 218 215 208 203 205 201 199 197 195 194 199 202 197 197 198 196
241 245 248 255 258 254 254 249 250 234 220 218 235 209 186 175 183 196 213 225 229 230 224 217 218 218 216 217 217 212 209 210 206 199 195 193 192 195 194 187 183 186 189
227 243 260 269 263 263 266 263 256 233 228 225 217 188 183 198 203 210 223 231 230 231 228 212 215 225 222 225 222 208 206 210 207 195 191 191 192 194 187 189 188 187 193
222 229 243 257 264 260 260 263 259 238 231 230 227 218 215 216 218 226 233 235 220 220 220 216 216 224 227 231 228 220 216 211 200 192 186 186 187 185 182 186 191 192 192
222 223 230 235 236 243 254 264 263 240 236 236 229 224 223 225 230 232 229 226 216 218 227 229 232 231 229 225 225 219 207 193 186 181 178 177 177 175 176 181 184 183 184
221 221 225 231 232 239 248 257 257 243 235 237 231 223 221 225 233 237 230 219 223 225 226 230 235 237 236 224 221 212 195 185 176 175 171 164 165 169 170 175 175 177 177
Height
1515 1515 1515 1515 1515 1515 1515 1515 1514 1514 1514 1513 1512 1512 1512 1512 1511 1511 1511 1511 1511 1511 1511 1511 1511 1510 1510 1510 1510 1511 1511 1511 1510 1509 1509 1509 1509 1508 1508 1508 1507 1507 1507
1512 1512 1512 1512 1512 1512 1512 1512 1511 1511 1511 1510 1510 1509 1509 1508 1508 1508 1508 1508 1508 1508 1508 1508 1508 1508 1507 1507 1507 1507 1508 1508 1508 1506 1506 1506 1506 1505 1505 1505 1505 1504 1504
1509 1508 1508 1508 1508 1508 1508 1508 1508 1508 1507 1507 1506 1506 1505 1505 1505 1505 1505 1505 1505 1505 1505 1505 1505 1505 1504 1504 1504 1504 1504 1504 1504 1504 1503 1503 1502 1502 1502 1502 1502 1502 1502
1505 1505 1505 1505 1505 1505 1505 1504 1504 1504 1504 1503 1503 1502 1502 1502 1502 1501 1501 1501 1501 1502 1502 1502 1502 1501 1501 1501 1501 1501 1501 1501 1501 1500 1500 1499 1499 1499 1499 1499 1498 1499 1499
1501 1501 1501 1501 1501 1501 1501 1501 1500 1500 1500 1500 1499 1499 1498 1498 1498 1498 1497 1497 1498 1498 1498 1498 1498 1498 1498 1498 1498 1498 1497 1497 1497 1496 1496 1496 1495 1495 1495 1495 1495 1495 1495
1498 1498 1497 1497 1497 1497 1497 1497 1496 1496 1496 1496 1495 1495 1494 1494 1494 1494 1494 1494 1494 1494 1494 1494 1494 1495 1495 1495 1494 1494 1494 1493 1493 1493 1492 1492 1492 1492 1492 1492 1492 1492 1491
1494 1494 1494 1493 1493 1493 1493 1492 1492 1491 1491 1491 1491 1490 1490 1490 1490 1490 1490 1490 1490 1490 1490 1490 1490 1491 1491 1491 1491 1491 1490 1490 1490 1490 1489 1488 1488 1488 1488 1488 1488 1488 1488
1490 1489 1489 1489 1488 1488 1488 1487 1487 1487 1487 1486 1486 1486 1486 1486 1486 1486 1486 1486 1486 1486 1486 1486 1486 1487 1487 1487 1487 1486 1486 1486 1485 1485 1485 1485 1485 1485 1485 1485 1485 1485 1486
1485 1485 1485 1484 1484 1483 1483 1483 1482 1482 1482 1482 1481 1481 1481 1481 1481 1481 1481 1481 1481 1481 1481 1482 1482 1482 1483 1483 1483 1482 1482 1481 1482 1482 1482 1481 1481 1482 1482 1482 1481 1482 1481
1481 1481 1480 1480 1479 1479 1479 1478 1477 1477 1477 1477 1476 1477 1476 1476 1476 1476 1477 1477 1476 1476 1477 1477 1478 1478 1479 1479 1479 1478 1477 1477 1477 1477 1477 1477 1477 1478 1478 1478 1478 1478 1478
1477 1476 1476 1476 1475 1475 1474 1474 1473 1473 1472 1472 1471 1471 1471 1471 1471 1471 1472 1472 1472 1472 1472 1472 1473 1474 1474 1475 1475 1474 1474 1474 1473 1473 1473 1473 1474 1474 1474 1474 1474 1474 1474
1472 1472 1471 1471 1471 1470 1469 1469 1469 1468 1467 1466 1466 1465 1466 1466 1466 1466 1467 1467 1467 1467 1467 1468 1469 1469 1470 1470 1470 1471 1471 1471 1470 1470 1469 1469 1470 1470 1470 1470 1471 1471 1471
1468 1467 1467 1466 1465 1465 1465 1464 1464 1463 1462 1461 1461 1460 1460 1460 1460 1461 1462 1462 1462 1463 1463 1464 1465 1465 1466 1466 1466 1467 1467 1467 1466 1466 1466 1466 1466 1467 1467 1467 1467 1467 1468
1463 1462 1462 1461 1460 1460 1460 1460 1459 1458 1457 1456 1455 1455 1455 1455 1455 1455 1456 1457 1457 1458 1459 1459 1460 1461 1461 1461 1462 1462 1462 1463 1463 1462 1463 1463 1463 1463 1463 1463 1463 1463 1464
1458 1458 1457 1457 1456 1455 1455 1454 1453 1453 1452 1451 1450 1450 1449 1449 1449 1450 1451 1451 1452 1453 1454 1454 1455 1456 1456 1457 1457 1458 1458 1459 1459 1459 1459 1459 1460 1460 1460 1460 1460 1460 1460
1454 1453 1453 1452 1451 1450 1450 1449 1448 1447 1446 1445 1445 1445 1445 1445 1445 1446 1446 1447 1448 1449 1450 1450 1451 1451 1452 1452 1453 1453 1454 1455 1455 1455 1456 1456 1456 1457 1457 1457 1457 1457 1457
1449 1449 1448 1447 1447 1446 1445 1444 1442 1441 1440 1439 1439 1440 1440 1441 1441 1441 1442 1443 1444 1444 1445 1445 1446 1447 1447 1448 1448 1449 1450 1451 1451 1452 1452 1452 1453 1453 1454 1454 1454 1454 1454
1445 1445 1444 1443 1442 1441 1440 1439 1438 1436 1435 1434 1435 1435 1436 1437 1437 1438 1439 1439 1439 1440 1440 1441 1442 1442 1443 1443 1444 1445 1445 1446 1447 1448 1448 1449 1449 1450 1450 1451 1451 1451 1452
1440 1440 1439 1439 1438 1437 1435 1434 1434 1433 1432 1431 1431 1432 1433 1433 1434 1434 1435 1435 1435 1435 1436 1436 1437 1438 1439 1439 1439 1440 1441 1442 1442 1443 1444 1445 1445 1446 1447 1448 1448 1449 1450
1436 1435 1435 1434 1433 1432 1431 1430 1429 1429 1428 1428 1428 1428 1429 1429 1429 1430 1431 1431 1432 1432 1432 1433 1433 1434 1434 1434 1435 1436 1437 1437 1438 1439 1440 1441 1442 1443 1443 1444 1445 1446 1447
1431 1431 1430 1429 1429 1428 1427 1427 1425 1425 1425 1425 1425 1425 1426 1426 1426 1427 1428 1428 1428 1429 1429 1429 1430 1430 1430 1431 1432 1432 1432 1433 1434 1435 1436 1437 1438 1439 1440 1441 1442 1443 1444
1427 1426 1426 1425 1424 1424 1423 1422 1422 1421 1421 1422 1422 1423 1423 1423 1424 1424 1424 1425 1425 1426 1426 1426 1426 1426 1427 1427 1428 1428 1429 1430 1431 1432 1432 1434 1435 1436 1437 1438 1439 1440 1442
1423 1423 1422 1421 1421 1420 1419 1418 1418 1417 1418 1419 1419 1419 1420 1420 1420 1421 1421 1422 1422 1422 1423 1423 1423 1423 1423 1424 1424 1425 1425 1426 1427 1428 1429 1430 1431 1432 1433 1435 1436 1437 1439
1419 1419 1418 1418 1417 1416 1415 1415 1415 1415 1415 1416 1416 1416 1417 1417 1417 1418 1418 1418 1419 1419 1419 1419 1419 1420 1420 1420 1421 1421 1422 1423 1424 1425 1426 1427 1428 1429 1430 1432 1433 1435 1436
1416 1415 1415 1414 1414 1413 1413 1412 1411 1412 1412 1413 1413 1413 1414 1414 1415 1415 1415 1415 1415 1416 1416 1416 1416 1416 1416 1416 1417 1418 1419 1420 1421 1422 1423 1424 1425 1426 1427 1429 1430 1432 1433
1413 1412 1412 1411 1411 1410 1410 1409 1409 1409 1409 1410 1410 1410 1411 1411 1411 1412 1412 1412 1412 1412 1412 1412 1412 1413 1413 1413 1414 1415 1416 1417 1418 1419 1421 1421 1422 1423 1424 1426 1427 1429 1430